星链-5424 (STARLINK-5424 )

导读

STARLINK-5424是美国太空探索技术公司(SpaceX)星链(Starlink)星座中的一颗卫星,于2022年12月17日发射升空,归属星链第二代卫星组网序列,运行在近地轨道,为全球提供高速低延迟宽带互联网服务,覆盖偏远、地面网络难以覆盖的区域,支撑星链全球卫星互联网组网的规模构建。

基本信息
目录编号:
54811
目录名称:
STARLINK-5424
国际标识:
2022-175BF
轨道中心:
EARTH
卫星名称:
星链-5424
卫星全名:
星链-5424 (STARLINK-5424 )
卫星状态:
在轨 (已飞行1357 天)
发射日期:
2022-12-17 UTC
国别 :
美国 (US)
星等 :
--
轨道信息
数据来源 国际轨道数据
星历时间: 2026-09-02T15:50:40+0800
1天前
查看轨道信息
半长轴: 6840.881km
偏心率: 0.0001247
轨道倾角: 53.160°
近地点辐角 89.257°
升交点赤经 302.327°
平近点角 270.857°
近地点: 461.89km
远地点: 463.598km
周期: 93.849分钟
每日圈数: 15.343864
详细信息
固有亮度:
5
最大亮度:
2.5
卫星平台:
Starlink v1.5
覆盖范围:
全球
运营商:
太空探索技术公司
运营商所在国:
美国
制造商(研发单位):
太空探索技术公司
制造商所在国:
美国
使用方式:
暂无
卫星简介
星链(Starlink)计划是由太空探索技术公司(SpaceX)提出的一个巨型低轨卫星互联网星座项目,计划在2019年至2024年间在太空搭建由约1.2万颗卫星组成的“星链”网络,其中1584颗将部署在地球上空550千米处的近地轨道,并从2020年开始工作。该卫星仍在工作。
2D轨道图
3D轨道图
轨道高度分析图
轨道倾角分析图
轨道综合分析图
查看轨道综合分析图
交会数据列表
事件ID 空间交会对象 最接近时刻(TCA) 交会距离 交会风险概率(CRP) 交会风险指数(CRI) 操作
CDM_260905-040705-481106-937522
2026-09-05T
04:07:43+0000
0.302 km
远距离
3.727074E-4 高风险 0.86
CDM_260903-150705-481105-941323
2026-09-03T
15:07:44+0000
1.544 km
极远距离
5.106293E-6 低风险 0.49
CDM_260904-175805-481106-937522
2026-09-04T
17:58:04+0000
1.672 km
极远距离
3.029953E-6 低风险 0.45
CDM_260829-185505-175705-481122
2026-08-29T
18:55:19+0000
2.020 km
极远距离
1.853369E-6 低风险 0.4
CDM_260904-193105-481106-937522
2026-09-04T
19:31:52+0000
2.034 km
极远距离
1.792503E-6 低风险 0.4
CDM_260904-221505-314205-481122
2026-09-04T
22:15:35+0000
2.789 km
极远距离
1.285791E-6 低风险 0.37